Location: Oberwangen
(47.4286°N, 8.9679°E)
Time: 09:16:59
(UTC+00:00)

SJ 16-02 - Pass Details

Date: 20 June 2021
Orbit: 606 x 616 km, 75.0° (Epoch: 04 August)

Event Time Altitude Azimuth Distance (km) Brightness Sun altitude
Rises 21:31:24 0° 353° (N) 2,876 6.2 -14.6°
Reaches altitude 10° 21:34:44 10° 20° (NNE) 1,966 4.6 -14.8°
Maximum altitude 21:36:57 14° 50° (NE) 1,736 3.8 -15.0°
Drops below altitude 10° 21:39:10 10° 81° (E) 1,960 3.8 -15.2°
Enters shadow 21:40:32 - 95° (E) 2,274 4.0 -15.3°
